QPF
0.00 0.00 0.00 0.00 0.00 0.01 0.01 0.03 0.03 0.03 0.03 0.01 0.00 0.01 0.02 0.04 0.03 0.04 0.04 0.03 0.02 0.01 0.01 0.01 0.04 0.05 0.02 0.01 0.00 0.00 0.00 0.00 0.00 0.00 0.00 0.00 0.00 0.00 0.00 0.01 0.01 0.01 0.01 0.01 0.01 0.01 0.02 0.02 0.02
0.00 0.00 0.00 0.00 0.00 0.02 0.04 0.04 0.04 0.02 0.01 0.01 0.00 0.01 0.01 0.05 0.02 0.04 0.05 0.05 0.02 0.00 0.01 0.01 0.02 0.06 0.02 0.01 0.00 0.00 0.00 0.00 0.00 0.00 0.00 0.00 0.00 0.01 0.01 0.01 0.01 0.01 0.01 0.01 0.01 0.01 0.02 0.02 0.03
0.00 0.00 0.00 0.00 0.00 0.01 0.05 0.07 0.04 0.03 0.02 0.01 0.01 0.01 0.01 0.04 0.03 0.03 0.03 0.02 0.01 0.01 0.01 0.01 0.01 0.04 0.02 0.01 0.00 0.00 0.00 0.00 0.00 0.00 0.00 0.00 0.00 0.00 0.01 0.01 0.01 0.01 0.00 0.01 0.01 0.01 0.02 0.02 0.03
0.00 0.00 0.00 0.01 0.01 0.02 0.03 0.04 0.02 0.04 0.05 0.02 0.01 0.01 0.01 0.02 0.02 0.02 0.02 0.01 0.01 0.01 0.01 0.01 0.01 0.02 0.02 0.02 0.01 0.01 0.00 0.00 0.00 0.00 0.00 0.00 0.00 0.00 0.00 0.01 0.01 0.01 0.01 0.01 0.01 0.01 0.01 0.02 0.03
0.00 0.00 0.01 0.02 0.03 0.02 0.03 0.03 0.03 0.04 0.06 0.03 0.01 0.01 0.03 0.03 0.01 0.02 0.02 0.02 0.02 0.01 0.02 0.02 0.02 0.01 0.01 0.01 0.02 0.02 0.01 0.01 0.01 0.01 0.00 0.00 0.00 0.00 0.00 0.01 0.01 0.01 0.01 0.00 0.00 0.01 0.01 0.01 0.02
0.00 0.00 0.01 0.02 0.02 0.03 0.04 0.03 0.03 0.03 0.03 0.03 0.01 0.01 0.02 0.03 0.02 0.01 0.01 0.01 0.01 0.02 0.03 0.02 0.02 0.02 0.02 0.02 0.02 0.03 0.02 0.02 0.02 0.02 0.00 0.00 0.00 0.01 0.01 0.01 0.01 0.01 0.01 0.01 0.01 0.01 0.01 0.01 0.01
0.00 0.00 0.01 0.01 0.03 0.04 0.03 0.02 0.02 0.02 0.02 0.02 0.01 0.02 0.02 0.02 0.03 0.01 0.01 0.01 0.01 0.02 0.03 0.03 0.03 0.03 0.04 0.03 0.03 0.04 0.04 0.04 0.03 0.02 0.01 0.01 0.01 0.01 0.01 0.01 0.01 0.01 0.02 0.02 0.02 0.01 0.02 0.02 0.01
0.00 0.01 0.01 0.01 0.05 0.03 0.02 0.02 0.03 0.03 0.03 0.02 0.01 0.01 0.02 0.02 0.02 0.03 0.02 0.02 0.03 0.04 0.05 0.05 0.04 0.03 0.05 0.05 0.04 0.04 0.05 0.04 0.03 0.02 0.01 0.02 0.02 0.02 0.02 0.01 0.02 0.02 0.03 0.03 0.04 0.03 0.03 0.03 0.03
0.00 0.01 0.01 0.02 0.05 0.02 0.01 0.02 0.02 0.02 0.02 0.01 0.01 0.01 0.02 0.02 0.02 0.04 0.03 0.03 0.04 0.06 0.12 0.08 0.07 0.04 0.04 0.05 0.04 0.05 0.05 0.04 0.04 0.03 0.02 0.02 0.02 0.02 0.02 0.02 0.03 0.03 0.04 0.04 0.05 0.04 0.05 0.05 0.04
0.01 0.01 0.01 0.01 0.01 0.02 0.03 0.02 0.03 0.03 0.03 0.03 0.10 0.07 0.03 0.02 0.02 0.03 0.04 0.03 0.04 0.04 0.09 0.09 0.11 0.09 0.06 0.06 0.05 0.05 0.05 0.04 0.03 0.04 0.04 0.04 0.03 0.02 0.02 0.02 0.03 0.03 0.04 0.04 0.06 0.06 0.06 0.04 0.03
0.01 0.01 0.01 0.01 0.01 0.03 0.02 0.02 0.02 0.03 0.04 0.04 0.08 0.08 0.03 0.02 0.02 0.03 0.03 0.03 0.04 0.03 0.04 0.05 0.07 0.09 0.08 0.08 0.06 0.06 0.05 0.05 0.04 0.04 0.04 0.04 0.04 0.03 0.03 0.02 0.02 0.03 0.04 0.04 0.04 0.05 0.03 0.02 0.02
0.01 0.01 0.01 0.03 0.03 0.02 0.01 0.01 0.01 0.02 0.06 0.05 0.04 0.04 0.04 0.04 0.03 0.05 0.08 0.04 0.05 0.02 0.03 0.03 0.05 0.08 0.11 0.11 0.08 0.06 0.04 0.05 0.05 0.05 0.04 0.04 0.05 0.04 0.04 0.04 0.03 0.04 0.04 0.03 0.04 0.04 0.03 0.02 0.02
0.01 0.01 0.01 0.01 0.02 0.02 0.02 0.03 0.02 0.03 0.09 0.06 0.03 0.03 0.03 0.03 0.04 0.03 0.06 0.06 0.05 0.04 0.04 0.04 0.04 0.06 0.10 0.13 0.17 0.12 0.08 0.08 0.07 0.06 0.06 0.05 0.04 0.04 0.04 0.05 0.08 0.08 0.08 0.07 0.05 0.04 0.04 0.04 0.03
0.01 0.01 0.01 0.01 0.01 0.01 0.01 0.01 0.02 0.03 0.07 0.08 0.04 0.03 0.03 0.03 0.03 0.04 0.04 0.06 0.06 0.07 0.05 0.03 0.03 0.04 0.06 0.10 0.20 0.25 0.17 0.10 0.09 0.07 0.08 0.08 0.07 0.07 0.06 0.07 0.10 0.13 0.14 0.12 0.08 0.05 0.04 0.04 0.03
0.00 0.00 0.00 0.01 0.00 0.01 0.01 0.01 0.03 0.04 0.05 0.05 0.03 0.03 0.06 0.05 0.04 0.07 0.09 0.06 0.05 0.04 0.03 0.03 0.04 0.03 0.04 0.08 0.14 0.19 0.24 0.19 0.14 0.10 0.09 0.09 0.11 0.14 0.20 0.24 0.21 0.15 0.12 0.11 0.10 0.07 0.05 0.04 0.03
0.00 0.01 0.02 0.02 0.01 0.00 0.01 0.01 0.02 0.03 0.04 0.04 0.05 0.06 0.07 0.05 0.03 0.05 0.07 0.07 0.06 0.04 0.03 0.03 0.03 0.03 0.04 0.07 0.14 0.12 0.13 0.19 0.23 0.18 0.14 0.12 0.13 0.14 0.18 0.25 0.26 0.19 0.14 0.12 0.10 0.07 0.06 0.05 0.04
0.01 0.01 0.02 0.02 0.01 0.00 0.00 0.01 0.02 0.02 0.02 0.03 0.05 0.05 0.05 0.04 0.03 0.06 0.09 0.11 0.07 0.05 0.05 0.04 0.03 0.03 0.03 0.04 0.07 0.09 0.08 0.10 0.15 0.19 0.20 0.19 0.19 0.19 0.16 0.15 0.18 0.14 0.12 0.10 0.09 0.07 0.06 0.06 0.04
0.00 0.01 0.01 0.01 0.01 0.00 0.00 0.00 0.02 0.03 0.02 0.02 0.02 0.02 0.03 0.02 0.03 0.04 0.06 0.07 0.06 0.10 0.13 0.08 0.03 0.03 0.03 0.03 0.04 0.04 0.05 0.05 0.07 0.11 0.15 0.17 0.16 0.16 0.15 0.13 0.14 0.12 0.11 0.09 0.08 0.06 0.06 0.06 0.05
0.00 0.00 0.00 0.00 0.00 0.01 0.01 0.01 0.02 0.05 0.03 0.04 0.05 0.05 0.03 0.04 0.04 0.03 0.03 0.03 0.04 0.06 0.06 0.04 0.04 0.04 0.04 0.03 0.04 0.04 0.05 0.04 0.04 0.06 0.08 0.12 0.16 0.16 0.15 0.11 0.13 0.13 0.11 0.09 0.08 0.08 0.07 0.07 0.08
0.00 0.00 0.00 0.00 0.01 0.01 0.01 0.02 0.04 0.08 0.08 0.08 0.07 0.06 0.03 0.03 0.03 0.02 0.02 0.02 0.03 0.03 0.04 0.03 0.03 0.04 0.04 0.04 0.03 0.03 0.04 0.05 0.06 0.05 0.06 0.07 0.09 0.11 0.12 0.11 0.10 0.11 0.11 0.10 0.09 0.07 0.07 0.06 0.08
0.00 0.00 0.01 0.01 0.01 0.02 0.01 0.02 0.05 0.10 0.11 0.11 0.07 0.06 0.05 0.04 0.03 0.02 0.01 0.01 0.02 0.02 0.03 0.03 0.03 0.03 0.03 0.04 0.05 0.06 0.07 0.06 0.06 0.06 0.06 0.05 0.07 0.08 0.08 0.10 0.11 0.12 0.12 0.10 0.09 0.07 0.06 0.05 0.07
0.02 0.02 0.01 0.01 0.02 0.04 0.02 0.02 0.05 0.10 0.14 0.11 0.07 0.06 0.06 0.04 0.03 0.02 0.02 0.04 0.02 0.02 0.02 0.02 0.03 0.04 0.04 0.05 0.06 0.07 0.07 0.06 0.04 0.04 0.04 0.04 0.04 0.06 0.06 0.06 0.09 0.11 0.10 0.09 0.08 0.09 0.09 0.07 0.07
0.01 0.02 0.01 0.01 0.02 0.03 0.03 0.03 0.05 0.06 0.09 0.09 0.06 0.06 0.06 0.05 0.03 0.03 0.05 0.05 0.03 0.04 0.06 0.04 0.03 0.04 0.05 0.07 0.07 0.07 0.06 0.05 0.05 0.04 0.04 0.04 0.04 0.04 0.05 0.04 0.05 0.06 0.07 0.08 0.08 0.08 0.10 0.09 0.08
0.00 0.01 0.02 0.03 0.02 0.03 0.03 0.03 0.04 0.04 0.05 0.06 0.04 0.03 0.03 0.03 0.03 0.03 0.04 0.03 0.02 0.05 0.06 0.05 0.04 0.03 0.04 0.05 0.06 0.07 0.06 0.05 0.05 0.05 0.05 0.05 0.04 0.04 0.04 0.04 0.04 0.04 0.05 0.08 0.08 0.08 0.09 0.10 0.09
0.00 0.01 0.04 0.05 0.03 0.03 0.03 0.03 0.04 0.04 0.04 0.05 0.03 0.02 0.02 0.02 0.02 0.02 0.02 0.03 0.04 0.03 0.03 0.04 0.04 0.02 0.02 0.03 0.03 0.04 0.03 0.03 0.04 0.04 0.05 0.06 0.06 0.05 0.05 0.04 0.03 0.03 0.04 0.06 0.08 0.09 0.09 0.09 0.08
0.00 0.00 0.01 0.02 0.02 0.03 0.02 0.03 0.05 0.04 0.04 0.04 0.02 0.02 0.02 0.02 0.03 0.02 0.02 0.03 0.07 0.05 0.03 0.02 0.02 0.02 0.02 0.02 0.03 0.03 0.02 0.03 0.03 0.03 0.03 0.03 0.02 0.02 0.03 0.03 0.03 0.04 0.05 0.05 0.06 0.08 0.10 0.09 0.07
0.00 0.00 0.01 0.02 0.02 0.02 0.03 0.03 0.04 0.03 0.02 0.02 0.01 0.02 0.02 0.02 0.01 0.01 0.02 0.04 0.05 0.04 0.03 0.02 0.02 0.02 0.02 0.02 0.03 0.02 0.01 0.02 0.03 0.03 0.03 0.03 0.02 0.01 0.02 0.02 0.03 0.05 0.05 0.06 0.07 0.06 0.08 0.08 0.07
0.01 0.00 0.01 0.01 0.02 0.03 0.02 0.02 0.02 0.02 0.03 0.03 0.03 0.03 0.02 0.01 0.01 0.01 0.02 0.03 0.02 0.02 0.02 0.02 0.01 0.01 0.01 0.02 0.04 0.02 0.01 0.02 0.03 0.03 0.03 0.03 0.02 0.02 0.01 0.01 0.03 0.04 0.04 0.05 0.06 0.06 0.09 0.10 0.08
0.00 0.00 0.00 0.01 0.01 0.03 0.02 0.02 0.02 0.03 0.03 0.03 0.03 0.04 0.03 0.02 0.01 0.01 0.02 0.02 0.01 0.03 0.02 0.01 0.01 0.01 0.01 0.02 0.04 0.04 0.03 0.02 0.02 0.03 0.03 0.02 0.02 0.01 0.01 0.02 0.03 0.03 0.03 0.05 0.06 0.07 0.11 0.12 0.10
0.00 0.00 0.00 0.00 0.01 0.02 0.02 0.02 0.02 0.03 0.02 0.03 0.04 0.06 0.03 0.02 0.01 0.01 0.01 0.01 0.02 0.03 0.03 0.03 0.03 0.03 0.04 0.05 0.07 0.07 0.05 0.03 0.03 0.04 0.04 0.03 0.02 0.02 0.02 0.03 0.04 0.04 0.05 0.05 0.04 0.05 0.07 0.09 0.09
MSLP
1010.31 1011.40 1012.56 1013.60 1014.32 1014.60 1014.41 1013.81 1012.95 1012.03 1011.26 1010.78 1010.67 1010.89 1011.31 1011.77 1012.08 1012.12 1011.82 1011.24 1010.47 1009.68 1009.00 1008.56 1008.40 1008.48 1008.72 1009.03 1009.29 1009.46 1009.53 1009.53 1009.52 1009.58 1009.74 1010.02 1010.39 1010.80 1011.19 1011.53 1011.80 1012.01 1012.19 1012.38 1012.60 1012.87 1013.18 1013.50 1013.79
1010.82 1012.05 1013.24 1014.19 1014.73 1014.78 1014.33 1013.51 1012.48 1011.47 1010.68 1010.25 1010.20 1010.48 1010.95 1011.43 1011.75 1011.78 1011.50 1010.95 1010.24 1009.52 1008.94 1008.58 1008.48 1008.61 1008.88 1009.19 1009.45 1009.62 1009.69 1009.70 1009.70 1009.76 1009.92 1010.17 1010.49 1010.85 1011.18 1011.46 1011.68 1011.86 1012.03 1012.23 1012.46 1012.75 1013.06 1013.38 1013.67
1011.44 1012.74 1013.89 1014.70 1015.04 1014.85 1014.19 1013.20 1012.08 1011.05 1010.29 1009.91 1009.92 1010.24 1010.72 1011.19 1011.48 1011.49 1011.21 1010.69 1010.05 1009.43 1008.95 1008.69 1008.68 1008.86 1009.14 1009.44 1009.68 1009.82 1009.87 1009.85 1009.84 1009.88 1010.01 1010.22 1010.49 1010.79 1011.07 1011.30 1011.49 1011.67 1011.84 1012.06 1012.32 1012.62 1012.95 1013.27 1013.56
1012.07 1013.35 1014.39 1015.02 1015.15 1014.78 1013.97 1012.90 1011.78 1010.80 1010.13 1009.84 1009.91 1010.26 1010.72 1011.13 1011.37 1011.33 1011.04 1010.55 1009.99 1009.48 1009.12 1008.97 1009.03 1009.24 1009.53 1009.80 1009.99 1010.07 1010.07 1010.01 1009.96 1009.96 1010.05 1010.21 1010.43 1010.68 1010.91 1011.12 1011.30 1011.48 1011.68 1011.93 1012.22 1012.56 1012.90 1013.23 1013.52
1012.60 1013.76 1014.63 1015.06 1015.01 1014.50 1013.64 1012.59 1011.56 1010.72 1010.20 1010.03 1010.17 1010.53 1010.95 1011.29 1011.43 1011.34 1011.03 1010.58 1010.10 1009.70 1009.46 1009.40 1009.53 1009.76 1010.01 1010.22 1010.34 1010.34 1010.26 1010.14 1010.04 1010.00 1010.05 1010.17 1010.35 1010.56 1010.77 1010.97 1011.16 1011.36 1011.60 1011.89 1012.22 1012.58 1012.94 1013.27 1013.56
1012.91 1013.89 1014.54 1014.77 1014.56 1013.98 1013.15 1012.23 1011.38 1010.76 1010.43 1010.41 1010.63 1010.99 1011.35 1011.59 1011.64 1011.48 1011.16 1010.75 1010.35 1010.06 1009.92 1009.95 1010.11 1010.33 1010.53 1010.65 1010.66 1010.57 1010.41 1010.22 1010.08 1010.01 1010.02 1010.13 1010.28 1010.47 1010.67 1010.87 1011.08 1011.31 1011.59 1011.91 1012.28 1012.66 1013.04 1013.38 1013.65
1012.95 1013.69 1014.09 1014.13 1013.81 1013.23 1012.50 1011.78 1011.18 1010.82 1010.72 1010.85 1011.15 1011.49 1011.78 1011.93 1011.88 1011.67 1011.34 1010.98 1010.67 1010.48 1010.43 1010.52 1010.68 1010.86 1010.98 1011.00 1010.91 1010.72 1010.48 1010.24 1010.07 1009.98 1009.99 1010.08 1010.23 1010.41 1010.60 1010.80 1011.02 1011.28 1011.59 1011.95 1012.35 1012.76 1013.14 1013.47 1013.74
1012.72 1013.19 1013.35 1013.21 1012.83 1012.29 1011.71 1011.22 1010.90 1010.80 1010.92 1011.20 1011.55 1011.88 1012.10 1012.15 1012.03 1011.78 1011.46 1011.16 1010.94 1010.85 1010.87 1010.99 1011.15 1011.27 1011.30 1011.21 1011.01 1010.74 1010.45 1010.19 1010.01 1009.93 1009.94 1010.04 1010.19 1010.36 1010.54 1010.74 1010.96 1011.23 1011.56 1011.95 1012.36 1012.79 1013.18 1013.51 1013.76
1012.28 1012.48 1012.42 1012.14 1011.71 1011.24 1010.83 1010.57 1010.51 1010.65 1010.96 1011.35 1011.73 1012.03 1012.17 1012.15 1011.99 1011.72 1011.45 1011.22 1011.09 1011.08 1011.17 1011.31 1011.43 1011.49 1011.43 1011.25 1010.97 1010.65 1010.33 1010.07 1009.91 1009.85 1009.89 1010.00 1010.14 1010.29 1010.45 1010.63 1010.84 1011.10 1011.44 1011.83 1012.27 1012.71 1013.11 1013.44 1013.69
1011.73 1011.70 1011.45 1011.05 1010.60 1010.21 1009.95 1009.89 1010.03 1010.35 1010.79 1011.23 1011.62 1011.87 1011.96 1011.89 1011.71 1011.47 1011.25 1011.11 1011.08 1011.15 1011.28 1011.43 1011.52 1011.51 1011.38 1011.13 1010.81 1010.46 1010.15 1009.92 1009.80 1009.78 1009.85 1009.96 1010.08 1010.21 1010.33 1010.46 1010.64 1010.88 1011.20 1011.60 1012.04 1012.50 1012.92 1013.27 1013.52
1011.18 1010.97 1010.57 1010.09 1009.64 1009.31 1009.16 1009.24 1009.52 1009.95 1010.44 1010.90 1011.25 1011.46 1011.50 1011.41 1011.23 1011.04 1010.91 1010.86 1010.92 1011.06 1011.23 1011.38 1011.44 1011.38 1011.20 1010.91 1010.57 1010.24 1009.96 1009.77 1009.70 1009.72 1009.80 1009.91 1010.01 1010.09 1010.16 1010.24 1010.36 1010.57 1010.87 1011.26 1011.72 1012.19 1012.64 1013.01 1013.28
1010.75 1010.41 1009.92 1009.39 1008.94 1008.65 1008.57 1008.72 1009.05 1009.51 1010.00 1010.42 1010.73 1010.89 1010.90 1010.80 1010.66 1010.54 1010.50 1010.54 1010.68 1010.87 1011.06 1011.21 1011.24 1011.15 1010.94 1010.65 1010.32 1010.02 1009.79 1009.66 1009.64 1009.69 1009.77 1009.86 1009.92 1009.95 1009.95 1009.97 1010.04 1010.21 1010.49 1010.87 1011.34 1011.84 1012.31 1012.72 1013.03
1010.50 1010.10 1009.57 1009.02 1008.56 1008.29 1008.23 1008.39 1008.72 1009.15 1009.58 1009.94 1010.19 1010.31 1010.30 1010.23 1010.14 1010.09 1010.12 1010.24 1010.42 1010.64 1010.84 1010.96 1010.98 1010.87 1010.66 1010.38 1010.09 1009.85 1009.67 1009.60 1009.60 1009.66 1009.74 1009.80 1009.81 1009.78 1009.73 1009.69 1009.72 1009.85 1010.11 1010.49 1010.96 1011.48 1012.00 1012.45 1012.80
1010.48 1010.06 1009.52 1008.97 1008.53 1008.26 1008.19 1008.32 1008.60 1008.95 1009.30 1009.59 1009.79 1009.87 1009.87 1009.82 1009.78 1009.79 1009.87 1010.02 1010.22 1010.43 1010.60 1010.70 1010.69 1010.57 1010.38 1010.14 1009.91 1009.71 1009.59 1009.55 1009.57 1009.63 1009.68 1009.69 1009.66 1009.58 1009.49 1009.42 1009.42 1009.54 1009.78 1010.16 1010.63 1011.17 1011.71 1012.20 1012.60
1010.66 1010.25 1009.73 1009.20 1008.77 1008.50 1008.41 1008.49 1008.69 1008.96 1009.23 1009.45 1009.60 1009.67 1009.68 1009.66 1009.66 1009.69 1009.79 1009.92 1010.09 1010.25 1010.37 1010.41 1010.38 1010.27 1010.10 1009.91 1009.73 1009.60 1009.52 1009.49 1009.51 1009.54 1009.55 1009.52 1009.45 1009.34 1009.23 1009.16 1009.16 1009.27 1009.51 1009.88 1010.36 1010.90 1011.46 1011.98 1012.43
1010.96 1010.59 1010.11 1009.62 1009.21 1008.94 1008.82 1008.85 1008.99 1009.18 1009.38 1009.54 1009.66 1009.72 1009.75 1009.75 1009.76 1009.79 1009.85 1009.93 1010.01 1010.08 1010.11 1010.10 1010.04 1009.93 1009.80 1009.66 1009.54 1009.45 1009.40 1009.38 1009.37 1009.36 1009.32 1009.26 1009.16 1009.05 1008.95 1008.89 1008.91 1009.04 1009.28 1009.65 1010.11 1010.65 1011.20 1011.75 1012.23
1011.32 1010.99 1010.56 1010.12 1009.75 1009.50 1009.37 1009.36 1009.43 1009.56 1009.70 1009.83 1009.92 1009.99 1010.02 1010.03 1010.02 1010.01 1010.00 1009.97 1009.94 1009.89 1009.82 1009.74 1009.64 1009.55 1009.45 1009.37 1009.30 1009.25 1009.22 1009.18 1009.14 1009.08 1009.00 1008.90 1008.80 1008.70 1008.62 1008.61 1008.66 1008.81 1009.06 1009.42 1009.86 1010.37 1010.91 1011.45 1011.96
1011.65 1011.36 1011.00 1010.64 1010.33 1010.10 1009.98 1009.94 1009.97 1010.04 1010.14 1010.23 1010.31 1010.36 1010.39 1010.38 1010.34 1010.26 1010.15 1010.00 1009.83 1009.65 1009.48 1009.32 1009.19 1009.11 1009.05 1009.02 1009.01 1008.99 1008.96 1008.90 1008.82 1008.71 1008.59 1008.47 1008.37 1008.29 1008.26 1008.29 1008.39 1008.56 1008.82 1009.15 1009.56 1010.03 1010.55 1011.08 1011.61
1011.90 1011.67 1011.39 1011.12 1010.90 1010.73 1010.62 1010.57 1010.56 1010.58 1010.62 1010.66 1010.71 1010.74 1010.74 1010.71 1010.61 1010.45 1010.23 1009.95 1009.65 1009.35 1009.07 1008.85 1008.70 1008.63 1008.61 1008.63 1008.66 1008.68 1008.65 1008.57 1008.45 1008.30 1008.14 1008.00 1007.90 1007.85 1007.86 1007.94 1008.08 1008.27 1008.52 1008.83 1009.20 1009.62 1010.10 1010.62 1011.17
1012.05 1011.91 1011.75 1011.60 1011.47 1011.37 1011.30 1011.23 1011.18 1011.13 1011.10 1011.07 1011.06 1011.04 1011.00 1010.91 1010.75 1010.51 1010.19 1009.81 1009.40 1008.99 1008.64 1008.37 1008.21 1008.15 1008.17 1008.24 1008.31 1008.34 1008.32 1008.22 1008.07 1007.89 1007.70 1007.54 1007.44 1007.42 1007.46 1007.57 1007.73 1007.93 1008.17 1008.45 1008.77 1009.15 1009.60 1010.11 1010.67
1012.15 1012.12 1012.10 1012.10 1012.10 1012.09 1012.05 1011.96 1011.84 1011.70 1011.56 1011.42 1011.31 1011.20 1011.09 1010.94 1010.73 1010.43 1010.04 1009.58 1009.10 1008.63 1008.22 1007.93 1007.76 1007.71 1007.75 1007.85 1007.95 1008.00 1007.99 1007.88 1007.72 1007.51 1007.30 1007.13 1007.03 1007.01 1007.07 1007.19 1007.36 1007.55 1007.77 1008.02 1008.31 1008.65 1009.07 1009.58 1010.15
1012.23 1012.35 1012.51 1012.68 1012.83 1012.91 1012.90 1012.78 1012.57 1012.30 1012.00 1011.72 1011.46 1011.24 1011.03 1010.82 1010.55 1010.21 1009.79 1009.30 1008.79 1008.29 1007.86 1007.54 1007.36 1007.31 1007.36 1007.47 1007.59 1007.66 1007.65 1007.55 1007.38 1007.17 1006.96 1006.79 1006.68 1006.65 1006.70 1006.82 1006.97 1007.15 1007.35 1007.57 1007.83 1008.15 1008.57 1009.08 1009.67
1012.37 1012.66 1013.02 1013.38 1013.68 1013.86 1013.87 1013.70 1013.38 1012.94 1012.46 1011.98 1011.55 1011.18 1010.87 1010.58 1010.27 1009.92 1009.49 1009.01 1008.49 1007.99 1007.54 1007.20 1007.00 1006.93 1006.97 1007.07 1007.18 1007.26 1007.26 1007.18 1007.03 1006.84 1006.64 1006.48 1006.37 1006.33 1006.37 1006.45 1006.58 1006.73 1006.90 1007.10 1007.36 1007.68 1008.10 1008.63 1009.25
1012.60 1013.08 1013.65 1014.20 1014.64 1014.90 1014.92 1014.68 1014.23 1013.61 1012.92 1012.23 1011.61 1011.08 1010.65 1010.28 1009.95 1009.59 1009.18 1008.72 1008.22 1007.72 1007.26 1006.89 1006.64 1006.51 1006.50 1006.56 1006.65 1006.73 1006.75 1006.71 1006.60 1006.46 1006.30 1006.16 1006.06 1006.02 1006.03 1006.09 1006.18 1006.30 1006.45 1006.65 1006.90 1007.24 1007.68 1008.23 1008.86
1012.94 1013.60 1014.35 1015.07 1015.64 1015.96 1015.97 1015.66 1015.07 1014.27 1013.37 1012.48 1011.66 1010.97 1010.42 1009.99 1009.62 1009.26 1008.88 1008.44 1007.95 1007.44 1006.95 1006.51 1006.18 1005.97 1005.87 1005.87 1005.92 1005.99 1006.04 1006.05 1006.02 1005.96 1005.87 1005.78 1005.72 1005.68 1005.68 1005.71 1005.77 1005.86 1006.00 1006.19 1006.46 1006.82 1007.28 1007.85 1008.51
1013.36 1014.17 1015.06 1015.90 1016.55 1016.91 1016.90 1016.52 1015.81 1014.85 1013.77 1012.69 1011.70 1010.87 1010.21 1009.71 1009.31 1008.95 1008.58 1008.15 1007.65 1007.10 1006.54 1006.01 1005.57 1005.23 1005.02 1004.92 1004.92 1004.99 1005.08 1005.17 1005.24 1005.29 1005.31 1005.31 1005.30 1005.29 1005.29 1005.30 1005.34 1005.41 1005.53 1005.73 1006.02 1006.40 1006.89 1007.48 1008.14
1013.81 1014.70 1015.67 1016.57 1017.26 1017.62 1017.58 1017.14 1016.33 1015.25 1014.04 1012.83 1011.72 1010.78 1010.04 1009.47 1009.04 1008.65 1008.26 1007.80 1007.27 1006.65 1005.99 1005.33 1004.74 1004.26 1003.91 1003.72 1003.66 1003.72 1003.86 1004.05 1004.25 1004.44 1004.60 1004.72 1004.80 1004.84 1004.86 1004.87 1004.90 1004.96 1005.08 1005.28 1005.58 1005.99 1006.50 1007.10 1007.75
1014.24 1015.13 1016.10 1016.99 1017.66 1017.99 1017.91 1017.42 1016.56 1015.42 1014.15 1012.87 1011.69 1010.68 1009.88 1009.26 1008.78 1008.35 1007.91 1007.39 1006.77 1006.05 1005.26 1004.46 1003.71 1003.07 1002.59 1002.29 1002.19 1002.26 1002.46 1002.76 1003.11 1003.46 1003.78 1004.04 1004.23 1004.36 1004.42 1004.45 1004.47 1004.52 1004.64 1004.84 1005.15 1005.58 1006.10 1006.70 1007.35
1014.59 1015.41 1016.29 1017.10 1017.69 1017.96 1017.85 1017.33 1016.46 1015.33 1014.06 1012.78 1011.59 1010.57 1009.73 1009.07 1008.53 1008.04 1007.51 1006.90 1006.17 1005.31 1004.38 1003.42 1002.51 1001.73 1001.13 1000.75 1000.61 1000.70 1000.98 1001.40 1001.91 1002.43 1002.92 1003.33 1003.65 1003.86 1003.99 1004.05 1004.08 1004.14 1004.25 1004.46 1004.77 1005.20 1005.72 1006.32 1006.96
1014.84 1015.53 1016.27 1016.93 1017.41 1017.60 1017.44 1016.93 1016.09 1015.02 1013.82 1012.60 1011.46 1010.45 1009.61 1008.90 1008.29 1007.71 1007.07 1006.34 1005.47 1004.48 1003.41 1002.31 1001.26 1000.36 999.67 999.24 999.09 999.21 999.56 1000.10 1000.75 1001.44 1002.09 1002.65 1003.10 1003.41 1003.60 1003.70 1003.76 1003.82 1003.93 1004.14 1004.45 1004.88 1005.40 1006.00 1006.63
Thickness
5821 5819 5816 5805 5783 5764 5764 5783 5798 5804 5809 5821 5825 5818 5807 5798 5788 5780 5806 5815 5812 5808 5806 5802 5799 5795 5792 5790 5787 5784 5782 5779 5777 5774 5772 5769 5767 5764 5761 5759 5756 5754 5752 5750 5748 5746 5745 5743 5741
5821 5818 5808 5791 5768 5751 5763 5789 5796 5806 5817 5825 5824 5818 5808 5802 5807 5805 5808 5811 5811 5807 5804 5800 5797 5794 5790 5787 5784 5782 5779 5776 5774 5771 5769 5767 5764 5762 5759 5757 5754 5752 5750 5748 5746 5744 5743 5741 5739
5822 5819 5797 5778 5764 5756 5769 5793 5802 5814 5824 5824 5816 5815 5807 5801 5807 5807 5811 5812 5809 5805 5801 5798 5795 5792 5788 5785 5782 5779 5776 5773 5771 5768 5766 5764 5761 5759 5757 5755 5752 5750 5748 5746 5744 5742 5740 5739 5737
5818 5805 5792 5773 5767 5778 5788 5801 5810 5812 5817 5821 5815 5803 5806 5812 5811 5812 5813 5810 5805 5801 5798 5796 5793 5789 5786 5783 5779 5776 5773 5770 5767 5765 5762 5760 5758 5756 5754 5752 5750 5748 5746 5744 5742 5740 5738 5737 5735
5813 5792 5775 5764 5774 5790 5802 5810 5813 5808 5808 5812 5811 5795 5795 5809 5815 5813 5809 5806 5802 5797 5795 5792 5789 5786 5783 5780 5777 5773 5770 5767 5764 5761 5759 5756 5754 5752 5750 5748 5747 5745 5743 5742 5740 5738 5736 5735 5733
5797 5784 5762 5756 5773 5793 5803 5811 5812 5806 5805 5809 5806 5794 5791 5805 5807 5807 5806 5801 5798 5794 5790 5787 5784 5782 5779 5776 5774 5771 5767 5764 5761 5758 5756 5753 5751 5749 5747 5745 5743 5742 5741 5739 5737 5736 5734 5732 5730
5790 5776 5765 5768 5773 5784 5802 5814 5810 5804 5801 5806 5810 5791 5790 5798 5803 5804 5802 5798 5793 5790 5786 5782 5779 5777 5776 5773 5770 5767 5764 5761 5758 5755 5753 5750 5748 5746 5744 5742 5740 5739 5738 5737 5735 5733 5732 5730 5729
5800 5779 5769 5770 5775 5782 5804 5811 5812 5807 5804 5814 5812 5790 5784 5795 5802 5799 5795 5790 5787 5784 5782 5779 5776 5773 5771 5769 5766 5763 5760 5757 5755 5752 5749 5747 5745 5743 5741 5739 5737 5736 5735 5734 5732 5731 5729 5728 5726
5807 5772 5760 5772 5779 5787 5804 5803 5807 5812 5808 5807 5807 5801 5799 5801 5799 5792 5784 5780 5777 5776 5775 5775 5772 5770 5768 5766 5764 5760 5757 5754 5752 5749 5746 5744 5742 5739 5737 5736 5734 5733 5732 5730 5729 5728 5727 5726 5724
5793 5765 5775 5793 5797 5797 5803 5804 5803 5799 5794 5794 5796 5799 5800 5797 5791 5784 5777 5772 5769 5768 5768 5769 5768 5766 5764 5762 5760 5757 5754 5751 5748 5745 5742 5740 5738 5736 5734 5732 5731 5730 5728 5727 5726 5725 5724 5722 5721
5794 5781 5794 5803 5808 5807 5803 5803 5806 5794 5783 5789 5790 5790 5791 5788 5783 5778 5774 5770 5767 5766 5764 5765 5764 5762 5759 5758 5755 5753 5751 5748 5746 5742 5739 5736 5734 5732 5730 5728 5727 5726 5724 5723 5722 5721 5720 5719 5718
5796 5797 5803 5806 5812 5808 5805 5803 5798 5795 5793 5800 5799 5794 5788 5782 5778 5774 5770 5767 5765 5763 5761 5760 5760 5758 5756 5754 5751 5748 5746 5742 5740 5738 5735 5732 5729 5728 5726 5724 5723 5721 5720 5719 5717 5717 5716 5715 5714
5795 5797 5807 5811 5810 5808 5806 5799 5796 5793 5800 5800 5796 5790 5783 5779 5775 5772 5769 5765 5762 5759 5757 5755 5755 5752 5750 5748 5746 5742 5740 5737 5734 5733 5731 5728 5725 5723 5721 5720 5719 5717 5716 5714 5713 5712 5711 5710 5710
5797 5799 5803 5807 5806 5806 5799 5794 5791 5787 5795 5791 5786 5780 5778 5775 5772 5767 5764 5760 5757 5755 5753 5752 5749 5747 5745 5741 5739 5736 5734 5732 5730 5727 5725 5723 5721 5718 5716 5714 5713 5713 5712 5710 5709 5708 5707 5706 5705
5801 5790 5792 5800 5801 5799 5795 5777 5779 5787 5788 5781 5778 5775 5772 5769 5767 5762 5760 5756 5753 5751 5749 5747 5744 5741 5738 5735 5733 5730 5728 5726 5722 5720 5719 5717 5715 5712 5711 5709 5707 5708 5707 5706 5705 5704 5702 5701 5701
5788 5776 5767 5787 5796 5796 5781 5757 5775 5783 5780 5772 5771 5770 5765 5763 5762 5760 5757 5753 5749 5746 5742 5740 5739 5735 5732 5729 5727 5724 5722 5719 5717 5715 5713 5710 5708 5706 5706 5704 5702 5703 5702 5700 5699 5698 5696 5695 5695
5766 5754 5758 5774 5791 5790 5775 5757 5770 5777 5773 5766 5764 5762 5758 5755 5755 5754 5752 5749 5745 5741 5737 5734 5732 5729 5726 5724 5721 5718 5716 5713 5712 5710 5708 5705 5703 5701 5700 5698 5697 5697 5697 5695 5694 5693 5692 5690 5690
5752 5753 5758 5762 5780 5781 5767 5759 5765 5769 5766 5759 5755 5753 5750 5747 5746 5746 5745 5743 5740 5736 5732 5728 5726 5723 5720 5717 5714 5711 5709 5706 5705 5702 5701 5700 5698 5697 5695 5693 5692 5692 5691 5690 5688 5688 5688 5687 5686
5769 5761 5755 5765 5780 5769 5758 5752 5755 5759 5755 5750 5746 5744 5742 5740 5741 5740 5737 5734 5732 5729 5725 5723 5720 5717 5714 5710 5705 5702 5700 5699 5698 5696 5695 5694 5691 5691 5690 5688 5687 5687 5686 5685 5684 5683 5682 5682 5682
5769 5757 5755 5764 5776 5766 5749 5744 5750 5752 5749 5746 5742 5738 5736 5734 5733 5733 5730 5728 5724 5720 5718 5716 5713 5711 5708 5704 5701 5697 5695 5693 5692 5690 5689 5688 5687 5686 5686 5684 5682 5681 5680 5679 5679 5678 5677 5677 5676
5766 5760 5758 5757 5763 5762 5747 5730 5735 5741 5743 5743 5739 5735 5733 5732 5728 5727 5722 5720 5717 5714 5711 5710 5707 5705 5702 5699 5695 5691 5687 5686 5684 5683 5683 5683 5683 5682 5682 5681 5679 5677 5676 5675 5674 5674 5672 5670 5670
5755 5772 5771 5764 5746 5733 5738 5707 5718 5725 5727 5729 5729 5728 5727 5726 5724 5720 5717 5713 5710 5707 5706 5703 5701 5698 5696 5693 5688 5684 5680 5677 5677 5677 5677 5678 5678 5678 5677 5676 5675 5672 5672 5671 5671 5670 5668 5666 5664
5767 5776 5770 5762 5746 5730 5727 5707 5706 5718 5714 5718 5722 5724 5724 5722 5719 5715 5712 5708 5705 5702 5700 5697 5694 5691 5688 5685 5682 5678 5675 5672 5671 5670 5670 5671 5671 5672 5672 5671 5670 5668 5667 5667 5667 5666 5664 5663 5661
5776 5765 5755 5744 5730 5710 5717 5705 5696 5706 5711 5714 5718 5720 5720 5719 5716 5712 5708 5704 5700 5697 5693 5690 5686 5683 5681 5678 5675 5672 5669 5666 5664 5663 5662 5663 5664 5665 5666 5665 5664 5663 5663 5663 5662 5661 5660 5659 5658
5764 5736 5712 5706 5696 5697 5714 5702 5697 5713 5718 5717 5716 5715 5715 5714 5710 5706 5702 5698 5694 5690 5686 5683 5679 5675 5673 5670 5667 5665 5663 5661 5659 5658 5657 5658 5658 5658 5659 5659 5658 5659 5659 5659 5658 5657 5656 5655 5654
5755 5737 5706 5691 5686 5692 5705 5695 5702 5718 5719 5719 5717 5713 5711 5707 5705 5701 5697 5692 5688 5685 5680 5677 5672 5669 5667 5664 5662 5660 5658 5656 5655 5654 5653 5653 5653 5654 5655 5655 5655 5655 5655 5655 5654 5653 5652 5652 5650
5751 5737 5733 5707 5700 5687 5691 5697 5705 5714 5711 5711 5709 5706 5702 5700 5699 5696 5692 5688 5684 5680 5676 5672 5667 5664 5662 5659 5657 5655 5654 5652 5650 5650 5649 5649 5649 5650 5651 5651 5651 5651 5651 5651 5650 5649 5648 5648 5646
5758 5745 5721 5703 5686 5676 5684 5688 5685 5695 5698 5700 5699 5696 5696 5694 5692 5690 5687 5684 5680 5677 5672 5668 5664 5660 5658 5655 5652 5650 5648 5648 5647 5646 5645 5645 5645 5646 5647 5647 5647 5647 5647 5647 5646 5646 5645 5643 5641
5745 5737 5719 5699 5693 5675 5666 5674 5698 5694 5695 5694 5693 5693 5691 5689 5686 5683 5681 5679 5676 5672 5668 5663 5660 5657 5654 5651 5648 5645 5644 5644 5643 5642 5642 5643 5643 5643 5643 5644 5644 5644 5644 5644 5643 5642 5641 5639 5636
5748 5735 5717 5695 5687 5681 5667 5670 5700 5696 5695 5692 5689 5689 5687 5684 5681 5679 5676 5673 5669 5666 5663 5660 5656 5653 5651 5648 5645 5643 5642 5641 5640 5640 5640 5641 5641 5640 5640 5641 5641 5641 5641 5641 5639 5639 5638 5635 5632